EW9831 Weather Reports


time (UTC)temp
C
wind
direction
speed
KPH
gust
KPH
rain 1hr
cm
rain 24hr
cm
rain mn
cm
humidity
%
barometer
mb
20181216150103 12 320 20.9 20.9 0.00 1.78 0.23 90 1022.8
20181216144602 12 310 11.3 11.3 0.00 1.80 0.23 90 1022.5
20181216144102 12 310 11.3 11.3 0.00 1.80 0.23 90 1022.5
20181216143602 12 310 11.3 11.3 0.00 1.80 0.23 90 1022.5
20181216142102 13 310 11.3 45.1 0.00 1.83 0.23 84 1022.3
20181216141602 13 280 14.5 45.1 0.00 1.83 0.23 84 1022.3
20181216140602 14 280 14.5 45.1 0.00 1.83 0.23 85 1022.4
20181216140102 14 280 14.5 45.1 0.00 1.83 0.23 85 1022.1
20181216135602 14 280 14.5 45.1 0.00 1.83 0.23 85 1022.1
20181216134602 14 280 14.5 14.5 0.00 1.88 0.23 84 1022.1
20181216132603 14 280 14.5 14.5 0.00 1.88 0.23 84 1022.2
20181216132102 14 280 14.5 14.5 0.00 1.88 0.23 86 1022.2
20181216131602 14 290 12.9 12.9 0.00 1.88 0.23 86 1022.2
20181216131102 14 290 12.9 12.9 0.00 1.88 0.23 85 1022.1
20181216130602 14 290 12.9 12.9 0.00 1.88 0.23 85 1022.1
20181216125104 14 290 12.9 16.1 0.00 1.88 0.23 88 1022.1
20181216124602 14 280 16.1 16.1 0.00 1.91 0.23 88 1022.2
20181216124102 14 280 16.1 16.1 0.00 1.91 0.23 88 1022.2
20181216123602 14 280 16.1 16.1 0.00 1.91 0.23 88 1022.2
20181216122603 14 280 16.1 16.1 0.00 1.91 0.23 88 1022.2
20181216121103 14 280 16.1 16.1 0.00 1.91 0.23 93 1022.3
20181216120602 14 280 16.1 16.1 0.00 1.91 0.23 93 1022.3
20181216115103 12 280 16.1 16.1 0.00 1.91 0.23 100 1022.4
20181216114602 12 270 14.5 14.5 0.00 1.91 0.23 100 1022.4
20181216114103 12 270 14.5 14.5 0.00 1.91 0.23 100 1022.4
20181216113603 12 270 14.5 14.5 0.00 1.91 0.23 100 1022.4
20181216112602 12 270 14.5 14.5 0.00 1.91 0.23 100 1022.2
20181216111602 11 290 14.5 14.5 0.00 1.91 0.23 100 1022.1
20181216111102 11 290 14.5 14.5 0.00 1.91 0.23 100 1022.1
20181216110602 11 290 14.5 14.5 0.00 1.91 0.23 100 1022.0
20181216105103 11 290 14.5 16.1 0.00 1.91 0.23 100 1021.3
20181216104104 11 220 16.1 16.1 0.00 1.91 0.23 100 1021.3
20181216103102 11 220 16.1 16.1 0.00 1.91 0.23 100 1021.1
20181216102602 11 220 16.1 16.1 0.00 1.91 0.23 100 1021.1
20181216102102 11 220 16.1 16.1 0.00 1.91 0.23 100 1021.1
20181216101602 11 240 9.7 9.7 0.00 1.91 0.23 100 1020.7
20181216101102 11 240 9.7 9.7 0.00 1.91 0.23 100 1020.7
20181216095602 11 240 9.7 9.7 0.00 1.91 0.23 100 1020.6
20181216095103 10 240 9.7 9.7 0.00 1.91 0.23 100 1020.5
20181216094102 10 240 8.0 8.0 0.00 1.91 0.23 100 1020.5
20181216093602 10 240 8.0 8.0 0.03 1.91 0.23 100 1020.5
20181216092602 10 240 8.0 8.0 0.03 1.91 0.23 100 1020.3
20181216092102 10 240 8.0 82.1 0.03 1.91 0.23 100 1020.3
20181216091102 10 280 22.5 82.1 0.03 1.91 0.23 100 1020.1
20181216090602 10 280 22.5 82.1 0.03 1.91 0.23 100 1020.1
20181216085603 10 280 22.5 82.1 0.03 1.91 0.23 100 1019.8
20181216085102 10 280 22.5 82.1 0.03 1.91 0.23 100 1019.9
20181216084602 10 240 11.3 11.3 0.03 1.91 0.23 100 1019.9
20181216084103 10 240 11.3 11.3 0.03 1.91 0.23 100 1019.9
20181216083603 10 240 11.3 11.3 0.00 1.88 0.20 100 1019.4
20181216083102 10 240 11.3 11.3 0.00 1.91 0.20 100 1019.4
20181216081102 10 230 8.0 8.0 0.03 1.91 0.20 100 1019.2
20181216080602 10 230 8.0 8.0 0.05 1.91 0.20 100 1019.2
20181216075103 11 230 8.0 9.7 0.08 1.91 0.20 100 1018.8
20181216074102 11 240 9.7 9.7 0.08 1.91 0.20 100 1018.8
20181216073603 11 240 9.7 9.7 0.08 1.91 0.20 100 1018.6
20181216073103 11 240 9.7 9.7 0.08 1.91 0.20 100 1018.6
20181216072602 11 240 9.7 9.7 0.05 1.88 0.18 100 1018.6
20181216072102 11 240 9.7 9.7 0.05 1.88 0.18 100 1018.6
20181216071603 11 250 0.0 0.0 0.05 1.88 0.18 100 1018.4
20181216071103 11 250 0.0 0.0 0.05 1.88 0.18 100 1018.4
20181216070103 11 250 0.0 0.0 0.03 1.85 0.15 100 1018.2
20181216065602 11 250 0.0 0.0 0.03 1.88 0.15 100 1018.2
20181216065105 11 250 0.0 4.8 0.00 1.85 0.15 100 1018.1
20181216064605 11 250 4.8 4.8 0.00 1.85 0.15 100 1018.1
20181216064103 11 250 4.8 4.8 0.00 1.85 0.15 100 1018.1
20181216062103 11 250 4.8 4.8 0.00 1.85 0.15 100 1018.3
20181216061603 11 250 4.8 4.8 0.00 1.85 0.15 100 1018.3
20181216061103 11 250 4.8 4.8 0.00 1.85 0.15 100 1018.2
20181216060103 12 250 4.8 4.8 0.00 1.85 0.15 100 1017.9
20181216055602 12 250 4.8 4.8 0.00 1.85 0.15 100 1017.9
20181216055104 12 250 4.8 4.8 0.00 1.85 0.15 100 1018.1
20181216054102 12 260 4.8 4.8 0.00 1.85 0.15 100 1018.1
20181216053103 12 260 4.8 4.8 0.00 1.85 0.15 100 1017.8
20181216052603 12 260 4.8 4.8 0.00 1.85 0.15 100 1017.8
20181216052103 12 260 4.8 4.8 0.00 1.85 0.15 100 1017.8
20181216051603 12 260 4.8 4.8 0.00 1.85 0.15 100 1017.8
20181216051102 12 260 4.8 4.8 0.00 1.85 0.15 100 1017.9
20181216045602 12 260 4.8 4.8 0.00 1.85 0.15 100 1017.9
20181216045103 12 260 4.8 4.8 0.00 1.85 0.15 100 1017.8
20181216044602 12 240 4.8 4.8 0.00 1.85 0.15 100 1017.8
20181216044103 12 240 4.8 4.8 0.00 1.85 0.15 100 1017.8
20181216043603 12 240 4.8 4.8 0.00 1.85 0.15 100 1017.8
20181216043103 12 240 4.8 4.8 0.00 1.85 0.15 100 1017.7
20181216042603 12 240 4.8 4.8 0.00 1.85 0.15 100 1017.7
20181216041102 12 240 9.7 9.7 0.00 1.85 0.15 100 1017.8
20181216035603 12 240 9.7 9.7 0.00 1.85 0.15 100 1017.7
20181216034602 12 210 9.7 9.7 0.00 1.85 0.15 100 1017.9
20181216033103 12 210 9.7 9.7 0.00 1.85 0.15 100 1017.8
20181216032603 12 210 9.7 9.7 0.00 1.85 0.15 100 1017.8
20181216025602 12 220 4.8 4.8 0.03 1.85 0.15 100 1017.6
20181216024103 12 230 8.0 8.0 0.05 1.85 0.13 100 1017.7
20181216022603 12 230 8.0 8.0 0.05 1.85 0.13 100 1017.5
20181216021603 12 220 11.3 11.3 0.08 1.85 0.13 100 1017.7
20181216021103 12 220 11.3 11.3 0.08 1.88 0.13 100 1017.6
20181216020603 12 220 11.3 11.3 0.05 1.85 0.10 100 1017.6
20181216015603 12 220 11.3 11.3 0.08 1.85 0.10 100 1017.6
20181216015103 12 220 11.3 11.3 0.08 1.85 0.10 100 1017.7
20181216014103 12 230 8.0 8.0 0.05 1.83 0.10 100 1017.7
20181216011102 12 220 8.0 8.0 0.05 1.80 0.05 100 1017.8
20181216010604 12 220 8.0 8.0 0.05 1.80 0.05 100 1017.9
20181216003603 12 220 9.7 9.7 0.05 1.78 0.03 100 1018.3
20181216002603 13 220 9.7 9.7 0.05 1.78 0.03 100 1018.4
20181216000603 13 260 4.8 4.8 0.08 1.75 0.00 100 1019.2
20181216000104 13 260 4.8 4.8 0.08 1.75 0.00 100 1019.1
20181215235603 13 260 4.8 4.8 0.10 1.75 1.75 100 1019.1
20181215235103 13 260 4.8 4.8 0.08 1.75 1.75 100 1018.8
20181215233603 13 250 4.8 4.8 0.10 1.75 1.75 100 1018.8
20181215233103 13 250 4.8 4.8 0.10 1.75 1.75 100 1018.8
20181215232604 13 250 4.8 4.8 0.15 1.75 1.75 100 1018.9
20181215231603 13 260 8.0 8.0 0.18 1.70 1.70 100 1019.1
20181215230104 13 260 8.0 8.0 0.23 1.70 1.70 100 1018.6
20181215225603 13 260 8.0 8.0 0.20 1.65 1.65 100 1018.4
20181215225104 13 260 8.0 24.1 0.20 1.65 1.65 100 1018.5
20181215224604 13 200 24.1 24.1 0.23 1.65 1.65 100 1018.5
20181215223603 13 200 24.1 24.1 0.33 1.65 1.65 100 1018.5
20181215223103 13 200 24.1 24.1 0.33 1.65 1.65 100 1018.5
20181215222603 13 200 24.1 24.1 0.41 1.60 1.60 100 1018.8
20181215221603 12 200 32.2 32.2 0.36 1.52 1.52 100 1019.0
20181215220604 12 200 32.2 32.2 0.30 1.45 1.45 100 1018.9
20181215220103 12 200 32.2 32.2 0.30 1.45 1.45 100 1018.9
20181215215602 12 200 32.2 32.2 0.30 1.45 1.45 100 1019.0
20181215214603 12 200 35.4 64.4 0.38 1.42 1.42 100 1019.3
20181215214103 12 200 35.4 64.4 0.38 1.42 1.42 100 1019.3
20181215213603 12 200 35.4 64.4 0.28 1.30 1.30 100 1019.5
20181215211603 12 190 35.4 35.4 0.30 1.17 1.17 100 1019.5
20181215211103 12 190 35.4 35.4 0.30 1.17 1.17 100 1019.5
20181215210603 12 190 35.4 35.4 0.33 1.17 1.17 100 1019.5
20181215210103 12 190 35.4 35.4 0.33 1.17 1.17 100 1019.5
20181215205604 12 190 35.4 35.4 0.33 1.14 1.14 100 1019.6
20181215205103 12 190 35.4 37.0 0.33 1.14 1.14 100 1019.9
20181215204103 12 190 37.0 37.0 0.25 1.04 1.04 100 1019.9
20181215200104 12 190 37.0 37.0 0.13 0.84 0.84 100 1020.0
20181215194103 12 190 38.6 38.6 0.10 0.79 0.79 100 1020.1
20181215193603 12 190 38.6 38.6 0.10 0.76 0.76 100 1020.2
20181215193103 12 190 38.6 38.6 0.10 0.76 0.76 100 1020.2
20181215191604 12 190 38.6 38.6 0.10 0.74 0.74 100 1020.3
20181215191103 12 190 38.6 38.6 0.10 0.74 0.74 100 1020.3
20181215190603 12 190 38.6 38.6 0.10 0.74 0.74 100 1020.6
20181215185104 12 190 38.6 38.6 0.10 0.69 0.69 100 1020.5
20181215184603 12 190 37.0 37.0 0.13 0.66 0.66 100 1020.5
20181215184103 12 190 37.0 37.0 0.13 0.66 0.66 100 1020.5
20181215183604 12 190 37.0 37.0 0.13 0.66 0.66 100 1020.6
20181215182603 12 190 37.0 37.0 0.25 0.66 0.66 100 1020.6
20181215182103 12 190 37.0 40.2 0.23 0.64 0.64 100 1020.6
20181215181603 12 190 40.2 40.2 0.23 0.64 0.64 100 1020.6
20181215181103 12 190 40.2 40.2 0.23 0.64 0.64 100 1020.7
20181215180603 12 190 40.2 40.2 0.23 0.64 0.64 100 1020.7
20181215175104 12 190 40.2 69.2 0.20 0.58 0.58 100 1020.9
20181215174103 12 190 38.6 69.2 0.28 0.53 0.53 100 1020.9
20181215173603 12 190 38.6 69.2 0.28 0.53 0.53 100 1021.1
20181215172603 12 190 38.6 69.2 0.18 0.41 0.41 100 1021.2
20181215172104 12 190 38.6 69.2 0.18 0.41 0.41 100 1021.2
20181215171103 12 190 37.0 64.4 0.18 0.41 0.41 100 1020.8
20181215170104 12 190 37.0 64.4 0.18 0.41 0.41 100 1021.0
20181215165604 12 190 37.0 64.4 0.18 0.41 0.41 100 1021.0
20181215163604 12 190 37.0 37.0 0.05 0.25 0.25 100 1021.7
20181215163103 12 190 37.0 37.0 0.03 0.23 0.23 100 1021.5
20181215162603 12 190 37.0 37.0 0.03 0.23 0.23 100 1021.5
20181215161103 12 190 35.4 35.4 0.03 0.23 0.23 100 1021.3
20181215160603 12 190 35.4 35.4 0.03 0.23 0.23 100 1021.2
20181215155103 12 190 35.4 35.4 0.03 0.20 0.20 100 1021.6
20181215154103 12 190 33.8 33.8 0.03 0.20 0.20 100 1021.6
20181215153603 12 190 33.8 33.8 0.03 0.20 0.20 100 1021.8
20181215153103 12 190 33.8 33.8 0.03 0.20 0.20 100 1021.8